CAPELLA-5 (WHITNEY) (48913 NORAD) Tracking and Keplerian Element Data

This shows tracking and keplerian element data for the satellite.

Feedback or suggestion? Click here.




ElementValue
Catalog48913
NameCAPELLA-5 (WHITNEY)
Epoch Orbit1388
Epoch Day268.62867469
Epoch Year2021
RAAN36.1239
Inclination97.5203
Eccentricity0.0009763
Argument of Perigee290.3531
Mean Anonmoly69.6651
Mean Motion15.13357054
Decay Rate9.111E-05
L11 48913U 21059AL 21268.62867469 .00009111 00000-0 51386-3 0 9997
L22 48913 97.5203 36.1239 0009763 290.3531 69.6651 15.13357054 13882

Live tracking and technical data element details for CAPELLA-5 (WHITNEY) (NORAD 48913). CAPELLA-5 (WHITNEY) can be tracked NOW for your location showing map with azimuth and elevation plus other details from your city location.

Track the satellite on the map from your city or location and see movement details for azimuth, elevation, latitude, longitude, range, height, and movement on the map or in text.







IsCatalogInMostPopularTable: catalog: 48913, numindb: 14
Update: records affected: 1



GetName: 48913 CAPELLA-5 (WHITNEY)

Hit Count: updated at: Sun, 26 Sep 2021 16:55:10 GMT